Flight Track Log - Related Links

Times and Time Zones

All times are in EDT time to prevent confusion due to time zone crossing. See the N52712 flight status page for this flight to view local times or setup timezone preferences in your user account.

Time Position Orientation Groundspeed Altitude Reporting Facility
EDT Latitude Longitude Course Direction KTS MPH feet Rate Location/Type
Fri 10:45:26 AM 42.0000 -70.4167 90° East 154 177 1,900  Level KA90
Fri 10:45:56 AM 42.0000 -70.4000 90° East 162 186 1,800 -143 Descending KA90
Fri 10:46:50 AM 42.0167 -70.3333 71° East 161 185 1,700 -350 Descending KA90
Fri 10:47:56 AM 42.0500 -70.2833 48° Northeast 160 184 1,100 -667 Descending KA90
Fri 10:48:56 AM 42.0667 -70.2333 66° East 151 174 300 -316 Descending KA90
Fri 10:49:50 AM 42.0833 -70.2000 56° Northeast 146 168 500 526 Climbing KA90
Fri 10:50:50 AM 42.1167 -70.1833 20° North 161 185 1,300 700 Climbing KA90
Fri 10:51:50 AM 42.1167 -70.2167 270° West 112 129 1,900 700 Climbing KA90
Fri 10:52:50 AM 42.1000 -70.2500 236° Southwest 95 109 2,700 550 Climbing KA90
Fri 10:53:50 AM 42.0833 -70.2833 236° Southwest 102 117 3,000 150 Climbing KA90
Fri 10:54:50 AM 42.0667 -70.3167 236° Southwest 115 132 3,000  Level KA90
Fri 10:55:50 AM 42.0500 -70.3500 236° Southwest 119 137 3,000  Level KA90
Fri 10:56:50 AM 42.0167 -70.3500 180° South 128 147 3,000  Level KA90
Fri 10:57:56 AM 41.9667 -70.3667 194° South 127 146 3,000 -48 Level KA90
Fri 10:58:56 AM 41.9333 -70.3667 180° South 130 150 2,900 -50 Descending KA90
Fri 10:59:56 AM 41.9167 -70.3667 180° South 129 148 2,900 -350 Level KA90
Fri 11:00:56 AM 41.8667 -70.4000 206° Southwest 140 161 2,200 -500 Descending KA90
Fri 11:01:56 AM 41.8333 -70.4333 217° Southwest 145 167 1,900 -150 Descending KA90
Fri 11:02:56 AM 41.8000 -70.4167 160° South 144 166 1,900 50 Level KA90
Fri 11:03:56 AM 41.7833 -70.4000 143° Southeast 136 157 2,000 100 Climbing KA90
Fri 11:04:56 AM 41.7500 -70.3667 143° Southeast 129 148 2,100 -300 Climbing KA90
Fri 11:05:56 AM 41.7167 -70.3500 160° South 119 137 1,400 -650 Descending KA90
Fri 11:06:56 AM 41.7000 -70.3167 124° Southeast 114 131 800 -550 Descending KA90
Fri 11:07:56 AM 41.6833 -70.3000 143° Southeast 112 129 300 -500 Descending KA90
Fri 11:09:00 AM 41.7001 -70.3207 317° Northwest  Level Estimated
Fri 11:16:00 AM 41.8098 -70.4567 317° Northwest  Level Estimated
Fri 11:17:00 AM 41.8255 -70.4761 317° Northwest  Level Estimated
Fri 11:18:00 AM 41.8411 -70.4956 317° Northwest  Level Estimated

Login

Don't have an account? Register now (free) for customized features, flight alerts, and more!